Regional Weather Roundup
Issued by NWS

Home | Current Version | Previous Version | Graphics & Text | Print | Product List | Glossary On
Versions: 1 2 3 4 5 6 7 8 9 10 11 12 13 14 15 16 17 18 19 20 21 22 23 24 25 26 27
000
ASUS45 KBOU 270607
RWRCO

WEATHER ROUNDUP FOR COLORADO
NATIONAL WEATHER SERVICE DENVER/BOULDER CO
1200 AM MDT SAT MAY 27 2017

NOTE: "FAIR" INDICATES FEW OR NO CLOUDS BELOW 12000 FEET WITH NO
SIGNIFICANT WEATHER AND/OR OBSTRUCTIONS TO VISIBILITY.

COZ001>005-013-030-031-270700-
...NORTHWEST COLORADO...

CITY           SKY/WX    TMP DP  RH WIND       PRES   REMARKS
CRAIG          LGT RAIN  44  39  82 NW5       30.12R
HAYDEN         CLOUDY    43  36  75 NW10      30.12R
MEEKER         CLOUDY    48  38  68 NE23      30.07R
RABBIT EARS PA NOT AVBL
STEAMBOAT SPGS NOT AVBL
WALDEN         NOT AVBL
$$

COZ006>008-011-270700-
...WEST CENTRAL VALLEYS...

CITY           SKY/WX    TMP DP  RH WIND       PRES   REMARKS
GRAND JUNCTION FAIR      68  30  24 NW15      29.88R
MONTROSE       FAIR      56  18  22 S16       29.94F
EAGLE          FAIR      57  31  37 NE6       30.01R
RIFLE          CLOUDY    60  37  42 W13       29.98R
DELTA          FAIR      64  20  18 E6        29.89R
NUCLA          FAIR      61  12  15 CALM      29.98R
$$

COZ017>023-064>068-270700-
...SOUTHWEST COLORADO...

CITY           SKY/WX    TMP DP  RH WIND       PRES   REMARKS
DURANGO        FAIR      48  17  29 N12       30.04R
CORTEZ         FAIR      62  21  20 S17       29.99R
PAGOSA SPRINGS FAIR      43  12  27 CALM      30.10R
TELLURIDE      FAIR      49  14  25 SE6       30.16S
WOLF CREEK PAS NOT AVBL
$$

COZ009-010-012-014-032>034-037-058>063-270700-
...CENTRAL COLORADO...

CITY           SKY/WX    TMP DP  RH WIND       PRES   REMARKS
ASPEN          FAIR      50  21  32 S8G26     30.01S
BUENA VISTA    FAIR      47  19  32 CALM      30.05R
COPPER MTN     NOT AVBL
BERTHOUD PASS  NOT AVBL
COTTONWOOD PAS NOT AVBL
GUNNISON       FAIR      44  23  43 N5        30.06R
KREMMLING      NOT AVBL
LEADVILLE      FAIR      42  10  27 S7        30.12F
SALIDA         FAIR      50  17  26 W12       30.10S
SUNLIGHT       NOT AVBL
WILKERSON PASS NOT AVBL
$$

COZ069>075-270700-
...SAN LUIS VALLEY/SANGRE DE CRISTO MOUNTAINS...

CITY           SKY/WX    TMP DP  RH WIND       PRES   REMARKS
ALAMOSA        FAIR      46  22  38 SW9       30.06S
DEL NORTE      NOT AVBL
LA VETA PASS   NOT AVBL
SAGUACHE       NOT AVBL
$$

COZ035-036-038>040-270700-
...NORTHERN COLORADO FRONT RANGE...

CITY           SKY/WX    TMP DP  RH WIND       PRES   REMARKS
DENVER INTL AP CLOUDY    50  44  80 N12       30.05R
DMNS CITY PARK   N/A     51  44  77 N13       30.06R
AURORA         CLOUDY    49  45  85 N14       30.06R
FRONT RANGE AP NOT AVBL
ERIE MUNI ARPT NOT AVBL
BOULDER MUN AP NOT AVBL
CENTENNIAL     CLOUDY    50  44  80 N14       30.07R
BROOMFIELD     NOT AVBL
FORT COLLINS   FAIR      50  44  80 NE10      30.03R
LONGMONT       NOT AVBL
$$

COZ041-046-047-076>085-087-088-270700-
...PIKES PEAK/PALMER DIVIDE AND SOUTHERN FOOTHILLS...

CITY           SKY/WX    TMP DP  RH WIND       PRES   REMARKS
COLO. SPRINGS  FAIR      53  43  68 N25G38    30.01R
A. F. ACADEMY  FAIR      50  41  71 N25G32    30.05R
SCHRIEVER AFB  FAIR      51  44  77 N21G33    30.00R
CHEYENNE MTN   FAIR      51  43  74 NW25G36   29.96R
ELLICOTT       FAIR     N/A N/A N/A N29G37    29.98R
FALCON         FAIR      47  40  76 N24G36    30.05R
FORT CARSON    FAIR      56  45  66 N32G39    29.96R
LIMON          MOCLDY    50  48  93 N16       29.98R
MONUMENT HILL  NOT AVBL
CANON CITY     NOT AVBL
WALSENBURG     FAIR      55  25  30 SW10      29.94R
TRINIDAD       FAIR      58  22  24 SW13      29.92F
$$

COZ042>045-048>051-090-091-270700-
...NORTHEAST COLORADO...

CITY           SKY/WX    TMP DP  RH WIND       PRES   REMARKS
GREELEY ARPT   FAIR      50  46  86 N14       30.03R
AKRON          FAIR      50  47  89 NE14      29.94R
BURLINGTON     FAIR      53  49  86 SE12      29.88F
WRAY           FAIR      55  48  76 N8        29.91R
YUMA           NOT AVBL
STERLING       NOT AVBL
HOLYOKE        NOT AVBL
FORT MORGAN    CLOUDY    51  48  89 N15       30.00R
$$

COZ086-089-092>099-270700-
...SOUTHEAST COLORADO...

CITY           SKY/WX    TMP DP  RH WIND       PRES   REMARKS
PUEBLO         FAIR      63  45  51 N31G38    29.86R
LA JUNTA       FAIR      59  31  34 W13       29.80R
LAMAR          FAIR      66  49  54 E5        29.78R
SPRINGFIELD      N/A     55  48  77 SW8       29.85F
$$




USA.gov is the U.S. government's official web portal to all federal, state and local government web resources and services.